GFSMA_prec_precacc6_228.txt.gz
Total_Precipitation_Accumulation
0.04 0.13 0.13 0.15 0.07 0.02 0.03 0.03 0.03 0.01 0.00 0.01 0.01 0.02 0.03 0.01 0.00 0.03 0.01 0.00 0.00 0.00 0.00 0.00 0.00 0.00 0.00 0.00 0.00 0.00 0.00 0.00 0.00 0.00 0.00 0.00 0.00 0.00 0.00 0.00 0.00 0.01 0.01
0.16 0.21 0.18 0.12 0.14 0.07 0.06 0.08 0.05 0.02 0.01 0.01 0.02 0.01 0.02 0.02 0.00 0.07 0.01 0.00 0.00 0.00 0.00 0.00 0.01 0.01 0.00 0.01 0.00 0.00 0.00 0.00 0.00 0.00 0.00 0.00 0.00 0.00 0.00 0.00 0.00 0.01 0.01
0.22 0.27 0.26 0.17 0.09 0.09 0.11 0.16 0.10 0.04 0.04 0.03 0.02 0.02 0.03 0.04 0.04 0.08 0.02 0.00 0.00 0.00 0.00 0.01 0.01 0.01 0.01 0.01 0.01 0.00 0.00 0.00 0.00 0.00 0.00 0.00 0.00 0.00 0.00 0.00 0.00 0.01 0.01
0.18 0.28 0.23 0.14 0.16 0.14 0.16 0.14 0.13 0.23 0.39 0.31 0.23 0.14 0.09 0.08 0.07 0.07 0.02 0.00 0.01 0.00 0.00 0.01 0.01 0.02 0.01 0.01 0.01 0.00 0.00 0.00 0.00 0.00 0.00 0.00 0.00 0.00 0.00 0.00 0.00 0.01 0.01
0.20 0.21 0.16 0.17 0.14 0.19 0.17 0.14 0.17 0.23 0.28 0.24 0.21 0.14 0.09 0.08 0.11 0.09 0.06 0.02 0.00 0.00 0.00 0.01 0.01 0.01 0.01 0.01 0.01 0.01 0.01 0.01 0.00 0.00 0.00 0.00 0.00 0.00 0.00 0.00 0.00 0.00 0.00
0.27 0.34 0.23 0.22 0.11 0.11 0.16 0.18 0.24 0.25 0.18 0.09 0.06 0.03 0.06 0.12 0.19 0.22 0.18 0.09 0.02 0.00 0.00 0.00 0.00 0.01 0.01 0.01 0.01 0.01 0.02 0.01 0.00 0.00 0.00 0.01 0.01 0.01 0.00 0.00 0.00 0.01 0.00
0.20 0.31 0.41 0.35 0.12 0.06 0.10 0.14 0.15 0.13 0.12 0.10 0.11 0.07 0.06 0.13 0.17 0.16 0.16 0.09 0.03 0.00 0.00 0.00 0.00 0.00 0.01 0.01 0.01 0.01 0.02 0.01 0.00 0.00 0.00 0.01 0.01 0.01 0.00 0.01 0.01 0.00 0.00
0.21 0.29 0.46 0.49 0.22 0.17 0.25 0.25 0.23 0.16 0.16 0.10 0.07 0.06 0.12 0.15 0.15 0.13 0.14 0.12 0.06 0.01 0.00 0.00 0.00 0.00 0.00 0.00 0.01 0.03 0.03 0.02 0.01 0.01 0.00 0.01 0.01 0.01 0.00 0.00 0.00 0.00 0.00
0.24 0.29 0.35 0.44 0.32 0.28 0.28 0.30 0.28 0.20 0.16 0.12 0.08 0.06 0.04 0.04 0.06 0.07 0.11 0.12 0.12 0.07 0.01 0.00 0.01 0.01 0.00 0.00 0.01 0.02 0.02 0.02 0.02 0.01 0.01 0.02 0.01 0.01 0.01 0.00 0.00 0.00 0.00
0.13 0.28 0.44 0.56 0.60 0.63 0.84 0.96 0.91 0.65 0.50 0.40 0.38 0.21 0.08 0.01 0.02 0.08 0.13 0.18 0.22 0.24 0.11 0.03 0.04 0.02 0.02 0.02 0.02 0.01 0.01 0.00 0.01 0.01 0.01 0.01 0.01 0.01 0.01 0.01 0.01 0.00 0.00
0.05 0.14 0.29 0.59 0.92 1.01 1.01 1.11 1.33 1.50 1.33 0.93 0.88 0.78 0.66 0.40 0.10 0.02 0.05 0.11 0.15 0.24 0.27 0.17 0.09 0.08 0.06 0.05 0.03 0.01 0.00 0.00 0.00 0.00 0.01 0.01 0.01 0.00 0.00 0.01 0.00 0.00 0.01
0.00 0.00 0.01 0.03 0.10 0.36 0.50 0.80 1.03 1.20 1.18 0.97 1.08 1.09 0.87 0.72 0.51 0.21 0.08 0.03 0.10 0.20 0.30 0.31 0.22 0.20 0.19 0.16 0.07 0.02 0.01 0.01 0.00 0.00 0.01 0.01 0.01 0.01 0.01 0.01 0.01 0.01 0.01
0.00 0.00 0.01 0.01 0.03 0.09 0.22 0.45 0.68 0.84 1.06 0.81 0.54 0.56 0.49 0.48 0.44 0.37 0.23 0.11 0.11 0.20 0.36 0.45 0.34 0.31 0.30 0.22 0.14 0.06 0.07 0.03 0.01 0.00 0.01 0.01 0.01 0.01 0.01 0.01 0.01 0.01 0.01
0.00 0.00 0.00 0.01 0.01 0.03 0.05 0.14 0.28 0.41 0.69 0.91 0.90 0.81 0.65 0.45 0.38 0.35 0.24 0.14 0.13 0.21 0.27 0.43 0.43 0.36 0.37 0.27 0.12 0.10 0.12 0.10 0.04 0.01 0.01 0.01 0.01 0.01 0.01 0.02 0.02 0.01 0.01
0.01 0.01 0.01 0.01 0.02 0.03 0.06 0.10 0.15 0.18 0.26 0.45 0.62 0.74 0.78 0.64 0.62 0.54 0.34 0.17 0.12 0.14 0.18 0.19 0.32 0.42 0.46 0.33 0.15 0.13 0.12 0.11 0.07 0.03 0.01 0.00 0.01 0.01 0.01 0.01 0.00 0.00 0.01
0.07 0.04 0.03 0.02 0.02 0.03 0.08 0.15 0.18 0.18 0.15 0.13 0.13 0.27 0.44 0.50 0.64 0.63 0.54 0.27 0.18 0.12 0.10 0.11 0.15 0.28 0.38 0.34 0.24 0.17 0.11 0.10 0.07 0.03 0.02 0.01 0.00 0.00 0.00 0.00 0.00 0.00 0.00
0.00 0.00 0.00 0.00 0.01 0.03 0.05 0.10 0.15 0.20 0.24 0.24 0.16 0.08 0.11 0.21 0.33 0.42 0.47 0.30 0.23 0.28 0.18 0.18 0.16 0.28 0.45 0.40 0.39 0.32 0.15 0.11 0.08 0.03 0.01 0.01 0.00 0.00 0.00 0.00 0.00 0.00 0.00
0.00 0.00 0.00 0.00 0.00 0.01 0.02 0.05 0.05 0.11 0.17 0.25 0.25 0.26 0.19 0.18 0.25 0.40 0.45 0.39 0.36 0.42 0.34 0.20 0.23 0.39 0.49 0.47 0.43 0.34 0.19 0.15 0.09 0.03 0.01 0.01 0.00 0.00 0.00 0.00 0.00 0.00 0.00
0.00 0.00 0.00 0.00 0.00 0.00 0.00 0.01 0.03 0.05 0.10 0.14 0.19 0.20 0.23 0.26 0.23 0.26 0.37 0.43 0.40 0.53 0.55 0.26 0.36 0.49 0.47 0.43 0.50 0.36 0.28 0.22 0.12 0.05 0.01 0.00 0.00 0.00 0.00 0.00 0.00 0.00 0.00
0.00 0.00 0.00 0.00 0.00 0.00 0.00 0.00 0.01 0.02 0.04 0.06 0.13 0.24 0.25 0.17 0.13 0.18 0.23 0.26 0.35 0.52 0.54 0.23 0.25 0.59 0.67 0.59 0.37 0.39 0.38 0.25 0.16 0.07 0.02 0.00 0.00 0.00 0.00 0.00 0.00 0.00 0.00
0.00 0.00 0.00 0.00 0.00 0.00 0.00 0.00 0.00 0.00 0.01 0.02 0.02 0.04 0.13 0.26 0.16 0.09 0.10 0.12 0.24 0.43 0.43 0.31 0.30 0.49 0.63 0.59 0.43 0.31 0.24 0.18 0.10 0.06 0.03 0.01 0.00 0.00 0.00 0.00 0.00 0.00 0.00
0.00 0.00 0.00 0.00 0.00 0.00 0.00 0.00 0.00 0.00 0.00 0.01 0.01 0.02 0.04 0.10 0.09 0.09 0.06 0.06 0.09 0.21 0.25 0.25 0.29 0.36 0.40 0.25 0.18 0.17 0.20 0.19 0.28 0.19 0.06 0.04 0.01 0.01 0.00 0.00 0.00 0.00 0.00
0.00 0.00 0.00 0.00 0.00 0.00 0.00 0.00 0.00 0.00 0.00 0.00 0.00 0.01 0.03 0.06 0.12 0.09 0.11 0.14 0.13 0.13 0.16 0.18 0.19 0.14 0.22 0.20 0.16 0.20 0.17 0.11 0.10 0.17 0.09 0.12 0.05 0.03 0.02 0.01 0.01 0.00 0.00
0.00 0.00 0.00 0.00 0.00 0.00 0.00 0.00 0.00 0.00 0.00 0.00 0.00 0.00 0.02 0.03 0.09 0.12 0.18 0.31 0.23 0.13 0.16 0.22 0.21 0.15 0.14 0.18 0.20 0.17 0.16 0.21 0.32 0.26 0.18 0.29 0.18 0.11 0.06 0.04 0.03 0.03 0.02
0.00 0.00 0.00 0.00 0.00 0.00 0.00 0.00 0.00 0.00 0.00 0.00 0.00 0.01 0.03 0.04 0.11 0.21 0.16 0.25 0.30 0.24 0.22 0.29 0.26 0.28 0.32 0.44 0.42 0.56 0.69 0.66 0.60 0.54 0.40 0.33 0.26 0.17 0.11 0.08 0.06 0.04 0.03
0.00 0.00 0.00 0.00 0.01 0.00 0.00 0.00 0.00 0.00 0.00 0.00 0.00 0.00 0.04 0.12 0.10 0.14 0.26 0.25 0.22 0.19 0.21 0.38 0.46 0.45 0.52 0.51 0.60 0.60 0.41 0.24 0.17 0.30 0.24 0.14 0.13 0.09 0.11 0.07 0.04 0.03 0.02

GFSMA_prec_precacc6_231.txt.gz
Total_Precipitation_Accumulation
0.01 0.06 0.04 0.03 0.02 0.01 0.01 0.02 0.01 0.00 0.00 0.00 0.00 0.00 0.00 0.00 0.00 0.03 0.01 0.00 0.00 0.00 0.00 0.00 0.00 0.00 0.00 0.00 0.00 0.00 0.00 0.00 0.00 0.00 0.00 0.00 0.00 0.00 0.00 0.00 0.00 0.01 0.01
0.19 0.28 0.29 0.26 0.11 0.03 0.15 0.15 0.04 0.01 0.00 0.00 0.00 0.00 0.00 0.00 0.00 0.07 0.01 0.00 0.00 0.00 0.00 0.00 0.00 0.01 0.00 0.01 0.00 0.00 0.00 0.00 0.00 0.01 0.01 0.01 0.00 0.00 0.00 0.00 0.01 0.01 0.02
0.39 0.44 0.40 0.34 0.20 0.18 0.16 0.30 0.13 0.09 0.04 0.01 0.00 0.01 0.01 0.01 0.01 0.07 0.01 0.00 0.00 0.00 0.00 0.00 0.00 0.01 0.00 0.01 0.01 0.00 0.00 0.00 0.01 0.01 0.01 0.01 0.00 0.00 0.00 0.00 0.01 0.01 0.01
0.39 0.39 0.29 0.19 0.25 0.35 0.41 0.29 0.32 0.21 0.07 0.04 0.03 0.03 0.06 0.04 0.03 0.04 0.01 0.00 0.00 0.00 0.00 0.00 0.00 0.01 0.01 0.01 0.01 0.01 0.00 0.01 0.01 0.01 0.01 0.01 0.00 0.00 0.00 0.00 0.00 0.01 0.01
0.18 0.25 0.31 0.29 0.30 0.44 0.35 0.29 0.20 0.21 0.14 0.06 0.11 0.12 0.07 0.04 0.07 0.04 0.02 0.01 0.00 0.00 0.00 0.00 0.00 0.01 0.01 0.01 0.01 0.01 0.01 0.01 0.01 0.01 0.01 0.01 0.01 0.00 0.00 0.01 0.00 0.01 0.01
0.16 0.20 0.21 0.23 0.22 0.23 0.25 0.20 0.21 0.12 0.08 0.09 0.07 0.05 0.02 0.01 0.03 0.03 0.02 0.04 0.01 0.00 0.00 0.00 0.00 0.00 0.00 0.01 0.01 0.01 0.02 0.01 0.01 0.01 0.01 0.01 0.01 0.01 0.01 0.01 0.01 0.01 0.01
0.07 0.16 0.25 0.25 0.15 0.12 0.15 0.21 0.24 0.22 0.16 0.13 0.16 0.13 0.04 0.01 0.01 0.04 0.04 0.04 0.03 0.00 0.00 0.00 0.00 0.00 0.00 0.00 0.01 0.01 0.03 0.01 0.01 0.01 0.01 0.02 0.01 0.01 0.01 0.01 0.01 0.01 0.01
0.04 0.08 0.21 0.32 0.22 0.16 0.24 0.29 0.30 0.34 0.35 0.30 0.26 0.33 0.35 0.29 0.14 0.08 0.08 0.06 0.03 0.01 0.00 0.00 0.00 0.00 0.00 0.00 0.00 0.02 0.03 0.02 0.01 0.01 0.01 0.02 0.01 0.01 0.01 0.01 0.00 0.00 0.01
0.02 0.06 0.13 0.24 0.25 0.29 0.39 0.51 0.53 0.46 0.35 0.30 0.24 0.26 0.27 0.24 0.14 0.09 0.09 0.08 0.06 0.04 0.01 0.00 0.00 0.00 0.00 0.00 0.00 0.01 0.02 0.01 0.02 0.02 0.02 0.03 0.02 0.01 0.02 0.01 0.00 0.00 0.01
0.00 0.03 0.09 0.23 0.31 0.37 0.68 1.02 1.18 1.20 1.22 1.18 1.09 0.94 0.78 0.74 0.61 0.49 0.36 0.21 0.12 0.08 0.05 0.01 0.00 0.00 0.01 0.00 0.00 0.00 0.01 0.01 0.02 0.02 0.02 0.03 0.02 0.02 0.02 0.01 0.01 0.00 0.00
0.00 0.00 0.02 0.16 0.24 0.17 0.19 0.42 0.94 1.20 1.31 1.19 1.17 1.17 1.23 1.24 0.91 0.59 0.48 0.42 0.22 0.15 0.12 0.03 0.00 0.00 0.01 0.02 0.01 0.00 0.00 0.00 0.00 0.00 0.02 0.04 0.03 0.02 0.02 0.01 0.00 0.00 0.01
0.00 0.00 0.02 0.02 0.02 0.02 0.06 0.07 0.12 0.26 0.48 0.71 0.95 1.10 0.94 0.84 0.72 0.54 0.42 0.37 0.36 0.26 0.17 0.10 0.04 0.02 0.01 0.03 0.03 0.01 0.01 0.01 0.02 0.01 0.01 0.03 0.03 0.02 0.02 0.02 0.00 0.01 0.01
0.00 0.00 0.02 0.02 0.03 0.03 0.03 0.06 0.10 0.20 0.43 0.50 0.44 0.52 0.62 0.61 0.53 0.52 0.44 0.40 0.44 0.45 0.38 0.21 0.09 0.04 0.02 0.04 0.05 0.03 0.06 0.03 0.02 0.02 0.02 0.02 0.02 0.02 0.03 0.02 0.01 0.02 0.02
0.00 0.00 0.02 0.03 0.05 0.07 0.09 0.09 0.07 0.07 0.14 0.32 0.43 0.48 0.55 0.47 0.47 0.47 0.38 0.33 0.35 0.38 0.38 0.34 0.23 0.12 0.06 0.05 0.05 0.08 0.11 0.11 0.05 0.03 0.02 0.03 0.03 0.02 0.03 0.02 0.02 0.02 0.02
0.02 0.04 0.07 0.05 0.03 0.03 0.08 0.12 0.12 0.10 0.12 0.18 0.28 0.41 0.66 0.81 0.83 0.70 0.52 0.36 0.26 0.29 0.28 0.24 0.20 0.18 0.15 0.11 0.08 0.10 0.12 0.15 0.11 0.07 0.05 0.03 0.03 0.02 0.02 0.02 0.02 0.01 0.01
0.13 0.07 0.04 0.02 0.02 0.02 0.03 0.07 0.11 0.15 0.16 0.17 0.18 0.24 0.35 0.53 0.88 1.06 0.96 0.60 0.36 0.22 0.22 0.18 0.14 0.16 0.14 0.12 0.15 0.13 0.12 0.16 0.12 0.08 0.06 0.05 0.04 0.03 0.02 0.01 0.01 0.01 0.01
0.02 0.00 0.00 0.00 0.00 0.00 0.01 0.02 0.04 0.08 0.18 0.26 0.28 0.28 0.21 0.22 0.40 0.59 0.70 0.62 0.54 0.49 0.33 0.26 0.23 0.22 0.22 0.11 0.22 0.29 0.20 0.20 0.15 0.09 0.05 0.05 0.06 0.06 0.03 0.01 0.00 0.00 0.00
0.00 0.00 0.00 0.00 0.00 0.00 0.00 0.00 0.00 0.02 0.08 0.19 0.28 0.36 0.32 0.27 0.20 0.22 0.37 0.44 0.46 0.60 0.57 0.32 0.37 0.57 0.44 0.20 0.19 0.27 0.24 0.28 0.18 0.12 0.05 0.03 0.04 0.05 0.04 0.03 0.01 0.00 0.00
0.00 0.00 0.00 0.00 0.00 0.00 0.00 0.00 0.00 0.00 0.01 0.04 0.12 0.28 0.37 0.46 0.41 0.22 0.22 0.32 0.40 0.59 0.62 0.37 0.50 0.78 0.62 0.39 0.32 0.39 0.34 0.31 0.20 0.15 0.07 0.02 0.02 0.04 0.03 0.02 0.01 0.00 0.00
0.00 0.00 0.00 0.00 0.00 0.00 0.00 0.00 0.00 0.00 0.00 0.01 0.02 0.10 0.29 0.36 0.39 0.47 0.36 0.34 0.40 0.59 0.56 0.33 0.42 0.77 0.73 0.62 0.31 0.41 0.56 0.43 0.34 0.25 0.14 0.05 0.01 0.02 0.02 0.01 0.01 0.00 0.00
0.00 0.00 0.00 0.00 0.00 0.00 0.00 0.00 0.00 0.00 0.00 0.00 0.00 0.01 0.09 0.27 0.29 0.30 0.31 0.37 0.37 0.44 0.44 0.34 0.36 0.62 0.72 0.60 0.50 0.37 0.26 0.27 0.24 0.22 0.16 0.09 0.02 0.02 0.01 0.00 0.00 0.00 0.00
0.00 0.00 0.00 0.00 0.00 0.00 0.00 0.00 0.00 0.00 0.00 0.00 0.00 0.00 0.00 0.04 0.06 0.13 0.23 0.20 0.22 0.31 0.25 0.27 0.29 0.44 0.53 0.29 0.18 0.20 0.24 0.32 0.49 0.45 0.21 0.18 0.04 0.01 0.00 0.00 0.00 0.00 0.00
0.00 0.00 0.00 0.00 0.00 0.00 0.00 0.00 0.00 0.00 0.00 0.00 0.00 0.00 0.00 0.01 0.05 0.05 0.08 0.13 0.12 0.14 0.14 0.16 0.24 0.26 0.38 0.35 0.19 0.16 0.14 0.12 0.16 0.29 0.19 0.26 0.13 0.06 0.02 0.01 0.01 0.01 0.00
0.00 0.00 0.00 0.00 0.00 0.00 0.00 0.00 0.00 0.00 0.00 0.00 0.00 0.00 0.00 0.00 0.01 0.02 0.07 0.09 0.07 0.06 0.07 0.09 0.09 0.10 0.18 0.29 0.32 0.25 0.14 0.11 0.23 0.30 0.24 0.37 0.27 0.18 0.07 0.02 0.04 0.04 0.02
0.00 0.00 0.00 0.00 0.00 0.00 0.00 0.00 0.00 0.00 0.00 0.00 0.00 0.00 0.00 0.00 0.00 0.03 0.03 0.06 0.08 0.08 0.08 0.11 0.09 0.12 0.27 0.41 0.43 0.58 0.72 0.79 0.75 0.71 0.63 0.53 0.50 0.39 0.30 0.15 0.09 0.07 0.05
0.00 0.00 0.00 0.00 0.01 0.00 0.01 0.01 0.00 0.00 0.00 0.00 0.00 0.00 0.01 0.00 0.00 0.01 0.04 0.04 0.06 0.04 0.05 0.14 0.24 0.22 0.32 0.44 0.60 0.57 0.51 0.40 0.31 0.45 0.50 0.30 0.30 0.23 0.39 0.32 0.12 0.07 0.05

GFSMA_prec_precacc6_234.txt.gz
Total_Precipitation_Accumulation
0.01 0.01 0.02 0.00 0.00 0.00 0.00 0.01 0.00 0.00 0.00 0.00 0.00 0.00 0.00 0.00 0.00 0.00 0.00 0.00 0.00 0.00 0.01 0.01 0.00 0.00 0.00 0.00 0.00 0.00 0.01 0.01 0.01 0.01 0.01 0.00 0.00 0.00 0.00 0.00 0.00 0.00 0.00
0.20 0.30 0.32 0.30 0.11 0.02 0.17 0.14 0.10 0.08 0.06 0.02 0.00 0.00 0.00 0.00 0.00 0.00 0.00 0.00 0.00 0.00 0.00 0.00 0.00 0.00 0.00 0.00 0.00 0.00 0.00 0.01 0.01 0.01 0.01 0.01 0.00 0.00 0.00 0.00 0.01 0.01 0.01
0.33 0.36 0.29 0.32 0.27 0.25 0.16 0.31 0.28 0.30 0.21 0.05 0.01 0.01 0.00 0.00 0.00 0.01 0.00 0.00 0.00 0.00 0.00 0.00 0.00 0.00 0.00 0.00 0.00 0.00 0.00 0.00 0.01 0.01 0.02 0.01 0.00 0.00 0.00 0.01 0.01 0.01 0.01
0.29 0.24 0.17 0.14 0.20 0.41 0.46 0.26 0.33 0.31 0.19 0.15 0.08 0.02 0.00 0.00 0.01 0.01 0.00 0.00 0.00 0.00 0.00 0.00 0.00 0.00 0.00 0.00 0.00 0.00 0.00 0.01 0.01 0.01 0.02 0.01 0.00 0.00 0.01 0.01 0.01 0.01 0.01
0.04 0.11 0.20 0.19 0.26 0.41 0.41 0.37 0.27 0.27 0.25 0.18 0.17 0.11 0.03 0.00 0.03 0.02 0.01 0.00 0.00 0.00 0.00 0.00 0.00 0.00 0.00 0.00 0.00 0.00 0.01 0.01 0.01 0.01 0.02 0.01 0.01 0.01 0.01 0.01 0.01 0.01 0.01
0.00 0.01 0.03 0.09 0.16 0.22 0.25 0.25 0.26 0.18 0.12 0.19 0.20 0.20 0.14 0.06 0.03 0.01 0.02 0.01 0.00 0.00 0.00 0.00 0.00 0.00 0.00 0.00 0.01 0.00 0.01 0.01 0.01 0.01 0.02 0.02 0.01 0.01 0.01 0.01 0.01 0.01 0.01
0.00 0.00 0.01 0.03 0.07 0.10 0.12 0.17 0.25 0.25 0.17 0.15 0.21 0.23 0.13 0.09 0.03 0.03 0.02 0.02 0.01 0.00 0.00 0.00 0.00 0.00 0.00 0.00 0.00 0.01 0.01 0.01 0.01 0.01 0.02 0.02 0.01 0.02 0.01 0.01 0.01 0.01 0.02
0.00 0.00 0.00 0.02 0.04 0.06 0.11 0.15 0.21 0.36 0.37 0.34 0.32 0.43 0.49 0.45 0.31 0.18 0.09 0.05 0.02 0.01 0.00 0.00 0.00 0.00 0.00 0.00 0.00 0.00 0.01 0.01 0.01 0.01 0.02 0.02 0.01 0.01 0.02 0.01 0.01 0.01 0.02
0.00 0.00 0.00 0.00 0.02 0.10 0.18 0.28 0.37 0.46 0.52 0.62 0.52 0.41 0.38 0.33 0.27 0.24 0.22 0.15 0.09 0.06 0.02 0.00 0.00 0.00 0.00 0.00 0.00 0.00 0.01 0.01 0.01 0.01 0.02 0.02 0.01 0.02 0.02 0.01 0.01 0.01 0.01
0.00 0.00 0.00 0.00 0.00 0.02 0.07 0.20 0.36 0.62 0.88 1.15 1.26 1.30 1.26 1.03 0.80 0.68 0.61 0.65 0.65 0.45 0.31 0.22 0.06 0.00 0.00 0.00 0.00 0.00 0.01 0.00 0.01 0.02 0.03 0.03 0.02 0.02 0.02 0.01 0.01 0.01 0.01
0.00 0.00 0.00 0.00 0.00 0.00 0.00 0.06 0.13 0.18 0.29 0.45 0.62 0.78 1.12 1.39 1.26 0.88 0.63 0.69 0.83 0.76 0.43 0.27 0.21 0.06 0.01 0.01 0.00 0.00 0.00 0.00 0.00 0.01 0.03 0.04 0.02 0.03 0.02 0.01 0.01 0.01 0.00
0.00 0.00 0.02 0.02 0.02 0.01 0.01 0.01 0.02 0.06 0.14 0.28 0.37 0.43 0.53 0.56 0.60 0.72 0.63 0.47 0.43 0.45 0.45 0.21 0.10 0.07 0.03 0.00 0.01 0.01 0.00 0.00 0.02 0.02 0.01 0.02 0.03 0.03 0.03 0.02 0.00 0.01 0.01
0.00 0.00 0.01 0.01 0.03 0.03 0.02 0.02 0.02 0.04 0.10 0.18 0.22 0.30 0.37 0.45 0.44 0.49 0.56 0.56 0.48 0.47 0.40 0.19 0.05 0.02 0.02 0.00 0.00 0.01 0.00 0.00 0.00 0.02 0.02 0.02 0.01 0.02 0.03 0.02 0.00 0.02 0.02
0.00 0.00 0.02 0.03 0.04 0.05 0.07 0.09 0.11 0.11 0.13 0.16 0.22 0.26 0.33 0.31 0.35 0.43 0.48 0.51 0.48 0.39 0.38 0.32 0.16 0.05 0.03 0.02 0.02 0.03 0.01 0.01 0.01 0.02 0.02 0.02 0.02 0.01 0.02 0.01 0.01 0.03 0.03
0.01 0.03 0.05 0.03 0.02 0.02 0.05 0.05 0.06 0.09 0.12 0.13 0.15 0.23 0.44 0.58 0.56 0.49 0.51 0.58 0.42 0.38 0.30 0.25 0.15 0.09 0.04 0.05 0.08 0.10 0.05 0.05 0.04 0.04 0.04 0.03 0.02 0.02 0.02 0.01 0.02 0.02 0.02
0.06 0.04 0.01 0.01 0.01 0.01 0.01 0.01 0.00 0.01 0.03 0.08 0.14 0.19 0.32 0.52 0.76 0.86 0.83 0.84 0.72 0.50 0.34 0.23 0.13 0.11 0.06 0.04 0.11 0.16 0.11 0.13 0.06 0.06 0.06 0.05 0.04 0.03 0.03 0.02 0.01 0.01 0.01
0.01 0.00 0.00 0.00 0.00 0.00 0.00 0.00 0.00 0.00 0.01 0.07 0.15 0.25 0.20 0.22 0.39 0.62 0.70 0.82 0.97 0.88 0.55 0.41 0.38 0.22 0.23 0.09 0.18 0.30 0.18 0.15 0.10 0.08 0.06 0.05 0.06 0.06 0.04 0.02 0.01 0.01 0.01
0.00 0.00 0.00 0.00 0.00 0.00 0.00 0.00 0.00 0.00 0.00 0.01 0.07 0.16 0.21 0.22 0.18 0.28 0.44 0.44 0.48 0.68 0.77 0.51 0.62 0.76 0.58 0.31 0.20 0.32 0.28 0.26 0.16 0.16 0.08 0.04 0.04 0.06 0.04 0.05 0.03 0.02 0.01
0.00 0.00 0.00 0.00 0.00 0.00 0.00 0.00 0.00 0.00 0.00 0.00 0.01 0.09 0.16 0.24 0.27 0.19 0.25 0.35 0.38 0.50 0.57 0.50 0.66 0.99 0.85 0.67 0.53 0.56 0.42 0.32 0.18 0.21 0.14 0.07 0.05 0.05 0.03 0.03 0.03 0.03 0.01
0.00 0.00 0.00 0.00 0.00 0.00 0.00 0.00 0.00 0.00 0.00 0.00 0.00 0.01 0.07 0.20 0.30 0.40 0.36 0.47 0.51 0.53 0.47 0.44 0.56 0.91 0.88 0.86 0.69 0.75 0.90 0.75 0.46 0.33 0.25 0.14 0.08 0.06 0.03 0.02 0.02 0.01 0.01
0.00 0.00 0.00 0.00 0.00 0.00 0.00 0.00 0.00 0.00 0.00 0.00 0.00 0.00 0.00 0.04 0.15 0.26 0.32 0.42 0.47 0.47 0.41 0.36 0.42 0.63 0.72 0.68 0.78 0.69 0.53 0.57 0.51 0.40 0.32 0.24 0.13 0.10 0.06 0.02 0.02 0.01 0.00
0.00 0.00 0.00 0.00 0.00 0.00 0.00 0.00 0.00 0.00 0.00 0.00 0.00 0.00 0.00 0.00 0.01 0.10 0.23 0.29 0.35 0.43 0.34 0.31 0.31 0.37 0.43 0.35 0.32 0.36 0.45 0.54 0.80 0.78 0.38 0.35 0.12 0.05 0.08 0.03 0.01 0.00 0.00
0.00 0.00 0.00 0.00 0.00 0.00 0.01 0.01 0.00 0.00 0.00 0.00 0.00 0.00 0.00 0.00 0.00 0.00 0.05 0.13 0.13 0.19 0.21 0.21 0.28 0.31 0.31 0.33 0.27 0.31 0.28 0.20 0.23 0.45 0.33 0.37 0.26 0.10 0.07 0.05 0.02 0.01 0.01
0.00 0.00 0.00 0.00 0.00 0.00 0.01 0.01 0.01 0.00 0.00 0.00 0.00 0.00 0.00 0.00 0.00 0.00 0.00 0.02 0.04 0.06 0.08 0.09 0.08 0.15 0.21 0.25 0.30 0.26 0.17 0.16 0.20 0.23 0.17 0.29 0.31 0.18 0.10 0.05 0.05 0.02 0.01
0.00 0.00 0.00 0.00 0.00 0.00 0.00 0.01 0.01 0.00 0.00 0.00 0.00 0.00 0.00 0.00 0.00 0.00 0.00 0.00 0.01 0.03 0.06 0.09 0.10 0.14 0.31 0.41 0.38 0.49 0.65 0.88 0.88 0.83 0.74 0.60 0.58 0.42 0.35 0.21 0.13 0.06 0.03
0.00 0.00 0.00 0.00 0.00 0.00 0.00 0.00 0.00 0.00 0.00 0.00 0.00 0.00 0.00 0.01 0.00 0.00 0.00 0.00 0.00 0.00 0.01 0.04 0.09 0.08 0.16 0.36 0.57 0.41 0.46 0.45 0.43 0.67 0.78 0.43 0.43 0.34 0.60 0.56 0.25 0.11 0.05

GFSMA_prec_precacc6_237.txt.gz
Total_Precipitation_Accumulation
0.03 0.03 0.02 0.02 0.01 0.01 0.00 0.00 0.00 0.00 0.00 0.00 0.00 0.00 0.00 0.00 0.00 0.00 0.00 0.00 0.00 0.00 0.01 0.01 0.00 0.00 0.00 0.00 0.00 0.00 0.01 0.01 0.02 0.01 0.01 0.01 0.01 0.00 0.00 0.00 0.00 0.00 0.00
0.22 0.26 0.26 0.18 0.08 0.08 0.14 0.14 0.18 0.14 0.10 0.08 0.03 0.03 0.03 0.01 0.00 0.00 0.00 0.00 0.00 0.00 0.00 0.01 0.01 0.01 0.00 0.00 0.00 0.00 0.00 0.01 0.01 0.01 0.01 0.01 0.01 0.00 0.00 0.00 0.00 0.00 0.00
0.11 0.15 0.13 0.17 0.17 0.16 0.11 0.21 0.34 0.38 0.41 0.29 0.25 0.22 0.11 0.06 0.02 0.00 0.00 0.00 0.00 0.00 0.00 0.00 0.01 0.01 0.01 0.00 0.00 0.00 0.00 0.00 0.00 0.01 0.01 0.01 0.01 0.00 0.01 0.01 0.01 0.01 0.01
0.03 0.05 0.06 0.08 0.11 0.18 0.17 0.08 0.13 0.17 0.17 0.20 0.21 0.13 0.09 0.04 0.01 0.00 0.00 0.00 0.00 0.00 0.00 0.00 0.00 0.00 0.01 0.01 0.00 0.00 0.00 0.00 0.00 0.01 0.01 0.01 0.00 0.00 0.01 0.01 0.02 0.01 0.02
0.00 0.00 0.03 0.05 0.07 0.12 0.16 0.15 0.13 0.16 0.18 0.16 0.18 0.16 0.11 0.06 0.05 0.04 0.00 0.00 0.00 0.00 0.00 0.00 0.00 0.00 0.00 0.00 0.00 0.00 0.00 0.00 0.00 0.01 0.01 0.01 0.00 0.01 0.01 0.01 0.01 0.01 0.02
0.00 0.00 0.00 0.01 0.03 0.06 0.08 0.10 0.11 0.13 0.14 0.22 0.24 0.19 0.16 0.10 0.04 0.02 0.03 0.02 0.01 0.00 0.00 0.00 0.00 0.00 0.00 0.00 0.00 0.00 0.00 0.00 0.01 0.01 0.01 0.01 0.01 0.01 0.01 0.01 0.01 0.01 0.01
0.00 0.00 0.00 0.00 0.00 0.01 0.02 0.04 0.08 0.12 0.14 0.19 0.25 0.22 0.14 0.11 0.06 0.03 0.04 0.04 0.02 0.00 0.00 0.00 0.00 0.00 0.00 0.00 0.00 0.00 0.00 0.00 0.01 0.01 0.01 0.01 0.01 0.01 0.01 0.01 0.01 0.01 0.01
0.00 0.00 0.00 0.00 0.00 0.00 0.01 0.04 0.08 0.13 0.15 0.16 0.22 0.28 0.29 0.31 0.27 0.20 0.10 0.06 0.03 0.01 0.01 0.00 0.00 0.00 0.00 0.00 0.00 0.00 0.00 0.01 0.01 0.01 0.02 0.01 0.01 0.01 0.01 0.01 0.01 0.01 0.01
0.00 0.00 0.00 0.00 0.00 0.00 0.00 0.01 0.07 0.18 0.32 0.42 0.40 0.45 0.44 0.31 0.29 0.27 0.26 0.16 0.09 0.05 0.03 0.01 0.00 0.00 0.00 0.00 0.00 0.00 0.01 0.01 0.01 0.01 0.02 0.01 0.01 0.02 0.01 0.01 0.01 0.01 0.01
0.00 0.00 0.00 0.00 0.00 0.00 0.00 0.00 0.01 0.03 0.14 0.34 0.53 0.58 0.71 0.62 0.55 0.48 0.49 0.67 0.69 0.47 0.33 0.25 0.12 0.03 0.01 0.00 0.00 0.00 0.00 0.00 0.01 0.02 0.02 0.01 0.01 0.02 0.02 0.01 0.01 0.01 0.01
0.00 0.00 0.00 0.00 0.00 0.00 0.00 0.00 0.00 0.00 0.01 0.06 0.25 0.37 0.55 0.59 0.65 0.73 0.60 0.68 1.12 1.03 0.54 0.31 0.35 0.29 0.18 0.10 0.04 0.01 0.00 0.00 0.00 0.01 0.02 0.01 0.01 0.02 0.02 0.01 0.01 0.01 0.00
0.00 0.00 0.00 0.00 0.00 0.00 0.00 0.00 0.01 0.01 0.00 0.01 0.05 0.21 0.41 0.44 0.42 0.51 0.58 0.49 0.54 0.66 0.81 0.54 0.26 0.19 0.18 0.15 0.10 0.05 0.01 0.00 0.00 0.00 0.01 0.00 0.01 0.03 0.02 0.01 0.01 0.01 0.01
0.00 0.00 0.00 0.00 0.00 0.00 0.00 0.00 0.02 0.02 0.03 0.03 0.03 0.06 0.16 0.34 0.41 0.39 0.47 0.47 0.41 0.39 0.48 0.52 0.38 0.28 0.19 0.10 0.07 0.06 0.02 0.01 0.00 0.00 0.00 0.00 0.00 0.01 0.01 0.01 0.01 0.01 0.02
0.00 0.00 0.00 0.00 0.00 0.01 0.00 0.01 0.05 0.07 0.08 0.09 0.10 0.09 0.12 0.16 0.31 0.46 0.49 0.49 0.57 0.50 0.41 0.42 0.36 0.25 0.20 0.15 0.11 0.08 0.01 0.03 0.02 0.00 0.00 0.00 0.00 0.01 0.01 0.00 0.00 0.02 0.02
0.00 0.01 0.00 0.00 0.00 0.00 0.00 0.00 0.02 0.04 0.05 0.06 0.06 0.08 0.12 0.16 0.30 0.50 0.62 0.77 0.71 0.63 0.47 0.44 0.36 0.18 0.09 0.12 0.15 0.12 0.07 0.05 0.02 0.02 0.01 0.00 0.00 0.00 0.01 0.00 0.00 0.01 0.01
0.00 0.00 0.00 0.00 0.00 0.00 0.00 0.00 0.00 0.00 0.00 0.00 0.01 0.03 0.11 0.21 0.31 0.43 0.56 0.74 1.01 1.12 0.78 0.39 0.44 0.46 0.21 0.10 0.13 0.17 0.18 0.21 0.09 0.03 0.02 0.01 0.00 0.00 0.01 0.01 0.01 0.01 0.01
0.00 0.00 0.00 0.00 0.00 0.00 0.00 0.00 0.00 0.00 0.00 0.00 0.00 0.01 0.02 0.07 0.14 0.28 0.40 0.55 0.80 1.02 0.98 0.66 0.55 0.49 0.45 0.19 0.16 0.27 0.29 0.30 0.23 0.14 0.06 0.02 0.00 0.00 0.01 0.01 0.01 0.01 0.00
0.00 0.00 0.00 0.00 0.00 0.00 0.00 0.00 0.00 0.00 0.00 0.00 0.00 0.00 0.00 0.01 0.05 0.17 0.26 0.26 0.32 0.52 0.74 0.69 0.65 0.76 0.83 0.51 0.20 0.32 0.37 0.35 0.27 0.23 0.14 0.06 0.02 0.01 0.00 0.01 0.03 0.02 0.01
0.00 0.00 0.00 0.00 0.00 0.00 0.00 0.00 0.00 0.00 0.00 0.00 0.00 0.00 0.00 0.01 0.02 0.05 0.13 0.20 0.26 0.40 0.51 0.50 0.60 0.90 1.02 0.94 0.78 0.61 0.51 0.49 0.42 0.30 0.19 0.10 0.06 0.02 0.01 0.00 0.02 0.02 0.01
0.00 0.00 0.00 0.00 0.00 0.00 0.00 0.00 0.00 0.00 0.00 0.00 0.00 0.00 0.00 0.01 0.02 0.10 0.17 0.26 0.32 0.37 0.42 0.45 0.45 0.71 0.92 1.01 0.98 1.12 1.24 1.11 0.78 0.51 0.35 0.22 0.13 0.07 0.03 0.01 0.01 0.01 0.01
0.00 0.00 0.00 0.00 0.00 0.00 0.00 0.00 0.00 0.00 0.00 0.00 0.00 0.00 0.00 0.00 0.01 0.04 0.12 0.15 0.23 0.36 0.36 0.33 0.37 0.50 0.68 0.77 0.90 0.95 1.02 1.11 0.98 0.63 0.68 0.55 0.32 0.22 0.13 0.05 0.02 0.01 0.00
0.00 0.00 0.00 0.00 0.00 0.00 0.00 0.01 0.01 0.00 0.00 0.00 0.00 0.00 0.00 0.00 0.00 0.01 0.03 0.14 0.23 0.33 0.41 0.37 0.34 0.32 0.35 0.50 0.52 0.52 0.68 0.95 1.29 1.20 0.83 0.71 0.37 0.28 0.24 0.10 0.03 0.00 0.00
0.00 0.00 0.00 0.00 0.00 0.00 0.01 0.01 0.01 0.00 0.00 0.00 0.00 0.00 0.00 0.00 0.00 0.00 0.01 0.03 0.08 0.17 0.26 0.31 0.26 0.25 0.22 0.28 0.37 0.49 0.44 0.37 0.45 0.73 0.78 0.77 0.62 0.30 0.17 0.11 0.04 0.01 0.00
0.00 0.00 0.00 0.00 0.00 0.00 0.01 0.01 0.01 0.00 0.00 0.00 0.00 0.00 0.00 0.00 0.00 0.00 0.00 0.00 0.01 0.04 0.08 0.16 0.19 0.22 0.23 0.21 0.22 0.26 0.28 0.33 0.42 0.46 0.42 0.56 0.64 0.42 0.28 0.15 0.08 0.02 0.01
0.00 0.00 0.00 0.00 0.00 0.00 0.00 0.01 0.01 0.00 0.00 0.00 0.00 0.00 0.00 0.00 0.00 0.00 0.00 0.00 0.00 0.00 0.03 0.08 0.13 0.20 0.35 0.39 0.41 0.42 0.52 0.79 0.94 0.99 0.97 0.93 0.85 0.55 0.49 0.40 0.28 0.11 0.04
0.00 0.00 0.00 0.00 0.00 0.00 0.00 0.00 0.00 0.00 0.00 0.00 0.00 0.00 0.01 0.01 0.00 0.00 0.00 0.00 0.00 0.00 0.00 0.01 0.05 0.06 0.13 0.35 0.47 0.24 0.27 0.28 0.41 0.74 0.90 0.62 0.69 0.50 0.66 0.67 0.58 0.34 0.16

GFSMA_prec_precacc6_240.txt.gz
Total_Precipitation_Accumulation
0.10 0.09 0.12 0.12 0.13 0.11 0.07 0.09 0.05 0.04 0.01 0.01 0.01 0.00 0.01 0.02 0.00 0.00 0.00 0.00 0.00 0.00 0.01 0.03 0.01 0.00 0.00 0.00 0.00 0.00 0.00 0.01 0.01 0.01 0.01 0.02 0.01 0.00 0.00 0.00 0.00 0.00 0.00
0.14 0.13 0.15 0.13 0.08 0.09 0.14 0.16 0.16 0.14 0.10 0.14 0.17 0.17 0.14 0.11 0.05 0.02 0.00 0.00 0.00 0.00 0.00 0.03 0.02 0.01 0.01 0.00 0.00 0.00 0.00 0.00 0.00 0.01 0.01 0.01 0.01 0.00 0.00 0.00 0.00 0.00 0.00
0.01 0.01 0.03 0.05 0.06 0.05 0.06 0.12 0.18 0.23 0.30 0.29 0.32 0.36 0.23 0.20 0.16 0.11 0.04 0.01 0.00 0.00 0.00 0.00 0.01 0.01 0.01 0.01 0.00 0.00 0.00 0.00 0.00 0.00 0.00 0.00 0.00 0.00 0.00 0.00 0.00 0.00 0.00
0.00 0.00 0.00 0.01 0.02 0.02 0.02 0.03 0.06 0.06 0.05 0.11 0.15 0.14 0.12 0.13 0.09 0.08 0.08 0.03 0.01 0.00 0.00 0.00 0.00 0.00 0.01 0.01 0.01 0.00 0.00 0.00 0.00 0.00 0.00 0.00 0.00 0.00 0.00 0.00 0.01 0.00 0.01
0.00 0.00 0.00 0.00 0.00 0.00 0.01 0.02 0.03 0.06 0.05 0.05 0.06 0.10 0.11 0.08 0.06 0.08 0.05 0.05 0.03 0.02 0.00 0.00 0.00 0.00 0.00 0.00 0.01 0.01 0.00 0.00 0.00 0.00 0.00 0.00 0.00 0.00 0.00 0.01 0.01 0.01 0.01
0.00 0.00 0.00 0.00 0.00 0.00 0.00 0.00 0.01 0.04 0.06 0.08 0.08 0.05 0.06 0.07 0.05 0.04 0.04 0.03 0.04 0.04 0.02 0.01 0.00 0.00 0.00 0.00 0.00 0.01 0.00 0.00 0.00 0.00 0.01 0.00 0.00 0.00 0.01 0.01 0.01 0.01 0.02
0.00 0.00 0.00 0.00 0.00 0.00 0.00 0.00 0.00 0.01 0.05 0.09 0.13 0.10 0.07 0.07 0.06 0.03 0.03 0.04 0.04 0.04 0.04 0.02 0.00 0.00 0.00 0.00 0.00 0.00 0.00 0.00 0.01 0.01 0.01 0.01 0.01 0.01 0.01 0.01 0.00 0.01 0.01
0.00 0.00 0.00 0.00 0.00 0.00 0.00 0.00 0.00 0.00 0.00 0.03 0.11 0.13 0.10 0.09 0.06 0.07 0.06 0.08 0.07 0.06 0.04 0.03 0.02 0.01 0.00 0.00 0.00 0.00 0.00 0.00 0.01 0.01 0.01 0.01 0.01 0.01 0.00 0.00 0.01 0.01 0.01
0.00 0.00 0.00 0.00 0.00 0.00 0.00 0.00 0.00 0.00 0.00 0.00 0.06 0.26 0.31 0.20 0.14 0.08 0.08 0.10 0.11 0.13 0.11 0.08 0.05 0.03 0.01 0.00 0.00 0.00 0.00 0.00 0.00 0.01 0.02 0.01 0.00 0.01 0.01 0.00 0.00 0.00 0.00
0.00 0.00 0.00 0.00 0.00 0.00 0.00 0.00 0.00 0.00 0.00 0.00 0.00 0.01 0.16 0.34 0.37 0.29 0.21 0.25 0.32 0.32 0.27 0.25 0.22 0.11 0.05 0.02 0.01 0.00 0.00 0.00 0.00 0.01 0.01 0.01 0.01 0.01 0.01 0.01 0.01 0.01 0.00
0.00 0.00 0.00 0.00 0.00 0.00 0.00 0.00 0.00 0.00 0.00 0.01 0.01 0.01 0.01 0.05 0.20 0.44 0.44 0.39 0.52 0.50 0.43 0.39 0.48 0.53 0.36 0.17 0.08 0.02 0.01 0.01 0.00 0.00 0.01 0.00 0.01 0.02 0.01 0.01 0.01 0.00 0.00
0.00 0.00 0.00 0.00 0.00 0.00 0.00 0.00 0.00 0.00 0.00 0.01 0.02 0.02 0.02 0.03 0.05 0.14 0.31 0.39 0.45 0.46 0.55 0.67 0.60 0.53 0.50 0.42 0.22 0.11 0.04 0.01 0.00 0.00 0.00 0.00 0.01 0.01 0.01 0.01 0.01 0.01 0.00
0.00 0.00 0.00 0.00 0.00 0.00 0.00 0.00 0.00 0.00 0.00 0.00 0.01 0.03 0.04 0.05 0.07 0.10 0.18 0.26 0.33 0.31 0.40 0.50 0.59 0.66 0.66 0.58 0.35 0.15 0.15 0.11 0.03 0.01 0.02 0.01 0.01 0.01 0.01 0.01 0.01 0.02 0.01
0.00 0.00 0.00 0.00 0.00 0.00 0.00 0.00 0.00 0.00 0.00 0.00 0.01 0.02 0.03 0.04 0.10 0.17 0.19 0.24 0.42 0.44 0.40 0.39 0.40 0.55 0.61 0.63 0.61 0.42 0.13 0.16 0.17 0.09 0.03 0.01 0.02 0.01 0.00 0.00 0.00 0.01 0.00
0.00 0.00 0.00 0.00 0.00 0.00 0.00 0.00 0.00 0.00 0.00 0.00 0.00 0.00 0.01 0.03 0.07 0.25 0.39 0.48 0.55 0.57 0.45 0.46 0.52 0.46 0.55 0.66 0.64 0.53 0.24 0.21 0.23 0.19 0.07 0.02 0.01 0.01 0.00 0.00 0.00 0.00 0.00
0.00 0.00 0.00 0.00 0.00 0.00 0.00 0.00 0.00 0.00 0.00 0.00 0.00 0.00 0.02 0.03 0.03 0.10 0.22 0.37 0.67 1.01 0.86 0.38 0.52 0.64 0.64 0.65 0.72 0.74 0.58 0.44 0.35 0.26 0.12 0.03 0.00 0.00 0.00 0.00 0.00 0.00 0.00
0.00 0.00 0.00 0.00 0.00 0.00 0.00 0.00 0.00 0.00 0.00 0.00 0.00 0.00 0.00 0.00 0.01 0.02 0.06 0.10 0.18 0.45 0.76 0.48 0.38 0.45 0.67 0.77 0.70 0.62 0.78 0.70 0.61 0.40 0.20 0.08 0.03 0.01 0.00 0.00 0.00 0.00 0.00
0.00 0.00 0.00 0.00 0.00 0.00 0.00 0.00 0.00 0.00 0.00 0.00 0.00 0.00 0.00 0.00 0.00 0.00 0.02 0.03 0.04 0.11 0.29 0.40 0.31 0.42 0.61 0.62 0.63 0.70 0.79 0.86 0.74 0.59 0.36 0.16 0.07 0.03 0.01 0.00 0.00 0.00 0.00
0.00 0.00 0.00 0.00 0.00 0.00 0.00 0.00 0.00 0.00 0.00 0.00 0.00 0.00 0.00 0.00 0.00 0.00 0.00 0.02 0.05 0.10 0.17 0.24 0.25 0.43 0.59 0.67 0.82 0.78 0.90 0.92 0.92 0.82 0.55 0.26 0.13 0.06 0.03 0.01 0.00 0.00 0.00
0.00 0.00 0.00 0.00 0.00 0.00 0.00 0.00 0.00 0.00 0.00 0.00 0.00 0.00 0.00 0.00 0.00 0.01 0.01 0.02 0.06 0.11 0.20 0.32 0.31 0.31 0.47 0.61 0.76 1.06 1.32 1.29 1.18 0.97 0.81 0.53 0.29 0.15 0.07 0.03 0.02 0.02 0.01
0.00 0.00 0.00 0.00 0.00 0.00 0.00 0.00 0.00 0.00 0.00 0.00 0.00 0.00 0.00 0.00 0.01 0.00 0.02 0.03 0.05 0.10 0.18 0.21 0.23 0.31 0.38 0.51 0.63 0.78 1.13 1.27 1.17 0.89 1.10 0.99 0.67 0.48 0.25 0.12 0.06 0.03 0.02
0.00 0.00 0.00 0.00 0.00 0.00 0.00 0.00 0.00 0.00 0.00 0.00 0.00 0.00 0.00 0.01 0.00 0.00 0.01 0.03 0.06 0.11 0.22 0.32 0.35 0.38 0.38 0.43 0.44 0.48 0.69 1.17 1.54 1.42 1.32 1.22 0.79 0.69 0.53 0.27 0.17 0.09 0.05
0.00 0.00 0.00 0.00 0.00 0.00 0.00 0.00 0.01 0.00 0.00 0.00 0.00 0.00 0.00 0.00 0.00 0.00 0.00 0.00 0.02 0.07 0.18 0.30 0.28 0.27 0.28 0.32 0.37 0.47 0.48 0.52 0.63 0.79 1.20 1.32 1.06 0.72 0.42 0.30 0.20 0.14 0.10
0.00 0.00 0.00 0.00 0.00 0.00 0.00 0.00 0.00 0.00 0.00 0.00 0.00 0.00 0.00 0.00 0.00 0.00 0.00 0.00 0.00 0.01 0.02 0.12 0.23 0.28 0.33 0.34 0.30 0.33 0.42 0.55 0.55 0.60 0.73 1.17 1.24 0.97 0.66 0.40 0.24 0.17 0.15
0.00 0.00 0.00 0.00 0.00 0.00 0.00 0.00 0.00 0.00 0.00 0.00 0.00 0.00 0.00 0.00 0.00 0.00 0.00 0.00 0.00 0.00 0.00 0.01 0.06 0.14 0.30 0.32 0.39 0.38 0.42 0.61 0.82 0.97 1.13 1.23 1.39 1.08 0.93 0.74 0.52 0.37 0.26
0.00 0.00 0.00 0.00 0.00 0.00 0.00 0.00 0.00 0.00 0.00 0.00 0.00 0.00 0.01 0.00 0.00 0.00 0.00 0.00 0.00 0.00 0.00 0.00 0.01 0.03 0.10 0.26 0.30 0.22 0.22 0.23 0.34 0.64 0.82 0.73 0.94 0.78 0.89 0.90 0.88 0.71 0.49

GFSMA_prec_precacc6_243.txt.gz
Total_Precipitation_Accumulation
0.07 0.07 0.10 0.10 0.12 0.11 0.07 0.09 0.06 0.04 0.02 0.03 0.03 0.02 0.02 0.06 0.02 0.00 0.00 0.01 0.01 0.00 0.00 0.05 0.04 0.01 0.00 0.00 0.00 0.00 0.00 0.00 0.00 0.01 0.01 0.01 0.01 0.01 0.00 0.00 0.00 0.00 0.00
0.04 0.02 0.04 0.05 0.03 0.03 0.05 0.06 0.07 0.08 0.08 0.09 0.15 0.16 0.14 0.18 0.16 0.05 0.01 0.02 0.01 0.03 0.01 0.03 0.06 0.04 0.01 0.00 0.00 0.00 0.00 0.00 0.00 0.00 0.00 0.01 0.01 0.00 0.00 0.00 0.00 0.00 0.00
0.00 0.00 0.01 0.01 0.01 0.02 0.02 0.03 0.05 0.07 0.07 0.07 0.10 0.16 0.13 0.16 0.18 0.18 0.07 0.03 0.03 0.01 0.01 0.01 0.01 0.02 0.03 0.02 0.00 0.00 0.00 0.00 0.00 0.00 0.00 0.00 0.01 0.00 0.00 0.00 0.00 0.00 0.00
0.00 0.00 0.00 0.00 0.00 0.00 0.00 0.00 0.00 0.02 0.02 0.03 0.03 0.05 0.07 0.12 0.10 0.09 0.12 0.07 0.04 0.04 0.02 0.00 0.01 0.01 0.02 0.03 0.01 0.00 0.00 0.00 0.00 0.00 0.00 0.00 0.00 0.00 0.00 0.00 0.00 0.00 0.00
0.00 0.00 0.00 0.00 0.00 0.00 0.00 0.00 0.00 0.00 0.01 0.03 0.03 0.03 0.03 0.04 0.05 0.07 0.08 0.06 0.04 0.09 0.09 0.03 0.00 0.01 0.02 0.04 0.02 0.01 0.00 0.00 0.00 0.00 0.00 0.00 0.00 0.00 0.00 0.00 0.00 0.00 0.00
0.00 0.00 0.00 0.00 0.00 0.00 0.00 0.00 0.00 0.00 0.00 0.00 0.01 0.03 0.03 0.02 0.03 0.03 0.02 0.04 0.06 0.06 0.05 0.05 0.02 0.01 0.02 0.04 0.04 0.04 0.01 0.01 0.00 0.00 0.00 0.00 0.00 0.00 0.00 0.00 0.00 0.00 0.00
0.00 0.00 0.00 0.00 0.00 0.00 0.00 0.00 0.00 0.00 0.00 0.00 0.00 0.01 0.03 0.04 0.03 0.02 0.02 0.04 0.06 0.08 0.07 0.04 0.03 0.02 0.02 0.03 0.03 0.05 0.03 0.02 0.01 0.00 0.01 0.00 0.00 0.00 0.00 0.00 0.00 0.00 0.00
0.00 0.00 0.00 0.00 0.00 0.00 0.00 0.00 0.00 0.00 0.00 0.00 0.00 0.00 0.00 0.01 0.01 0.02 0.04 0.07 0.08 0.12 0.13 0.13 0.10 0.07 0.04 0.03 0.02 0.04 0.04 0.03 0.02 0.00 0.00 0.00 0.00 0.00 0.00 0.00 0.01 0.00 0.00
0.00 0.00 0.00 0.00 0.00 0.00 0.00 0.00 0.00 0.00 0.00 0.00 0.00 0.01 0.01 0.00 0.01 0.00 0.03 0.07 0.09 0.11 0.12 0.16 0.20 0.21 0.18 0.14 0.08 0.04 0.03 0.02 0.01 0.01 0.01 0.00 0.00 0.00 0.00 0.00 0.00 0.00 0.00
0.00 0.00 0.00 0.00 0.00 0.00 0.00 0.00 0.00 0.00 0.00 0.00 0.00 0.00 0.02 0.03 0.02 0.00 0.01 0.07 0.20 0.26 0.24 0.22 0.22 0.23 0.24 0.26 0.24 0.19 0.10 0.04 0.02 0.01 0.01 0.00 0.00 0.00 0.00 0.00 0.00 0.00 0.00
0.00 0.00 0.00 0.00 0.00 0.00 0.00 0.00 0.00 0.00 0.00 0.00 0.00 0.00 0.00 0.01 0.00 0.01 0.00 0.00 0.02 0.10 0.25 0.34 0.35 0.31 0.30 0.32 0.35 0.33 0.30 0.16 0.07 0.03 0.02 0.01 0.00 0.00 0.00 0.00 0.00 0.00 0.00
0.00 0.00 0.00 0.00 0.00 0.00 0.00 0.00 0.00 0.00 0.00 0.00 0.00 0.00 0.00 0.01 0.01 0.02 0.02 0.01 0.01 0.01 0.04 0.29 0.43 0.41 0.38 0.36 0.37 0.37 0.44 0.39 0.24 0.08 0.03 0.02 0.00 0.00 0.01 0.01 0.01 0.01 0.00
0.00 0.00 0.00 0.00 0.00 0.00 0.00 0.00 0.00 0.00 0.00 0.00 0.00 0.00 0.00 0.00 0.01 0.04 0.06 0.04 0.02 0.01 0.01 0.05 0.24 0.40 0.49 0.53 0.39 0.34 0.37 0.30 0.27 0.22 0.10 0.06 0.02 0.00 0.01 0.01 0.02 0.01 0.01
0.00 0.00 0.00 0.00 0.00 0.00 0.00 0.00 0.00 0.00 0.00 0.00 0.00 0.00 0.00 0.00 0.01 0.02 0.05 0.07 0.07 0.05 0.07 0.06 0.11 0.31 0.43 0.50 0.54 0.58 0.54 0.46 0.32 0.24 0.17 0.10 0.06 0.03 0.01 0.00 0.01 0.01 0.00
0.00 0.00 0.00 0.00 0.00 0.00 0.00 0.00 0.00 0.00 0.00 0.00 0.00 0.00 0.00 0.00 0.01 0.03 0.09 0.12 0.13 0.13 0.07 0.08 0.23 0.34 0.49 0.58 0.58 0.56 0.54 0.58 0.61 0.59 0.40 0.22 0.15 0.06 0.02 0.02 0.01 0.00 0.00
0.00 0.00 0.00 0.00 0.00 0.00 0.00 0.00 0.00 0.00 0.00 0.00 0.00 0.00 0.00 0.00 0.00 0.00 0.06 0.14 0.22 0.30 0.30 0.10 0.12 0.23 0.47 0.59 0.67 0.73 0.69 0.66 0.64 0.69 0.76 0.67 0.37 0.27 0.12 0.02 0.01 0.00 0.00
0.00 0.00 0.00 0.00 0.00 0.00 0.00 0.00 0.00 0.00 0.00 0.00 0.00 0.00 0.00 0.00 0.00 0.00 0.01 0.02 0.03 0.06 0.14 0.07 0.03 0.06 0.34 0.66 0.64 0.57 0.72 0.78 0.78 0.72 0.72 0.74 0.72 0.61 0.38 0.14 0.04 0.01 0.00
0.00 0.00 0.00 0.00 0.00 0.00 0.00 0.00 0.00 0.00 0.00 0.00 0.00 0.00 0.00 0.00 0.00 0.00 0.00 0.01 0.01 0.02 0.04 0.04 0.01 0.02 0.09 0.35 0.59 0.66 0.70 0.85 0.89 0.86 0.71 0.76 0.80 0.68 0.56 0.32 0.11 0.05 0.02
0.00 0.00 0.00 0.00 0.00 0.00 0.00 0.00 0.00 0.00 0.00 0.00 0.00 0.00 0.00 0.00 0.00 0.00 0.00 0.00 0.00 0.00 0.02 0.05 0.02 0.01 0.03 0.17 0.49 0.62 0.75 0.77 0.89 0.97 0.90 0.78 0.74 0.66 0.58 0.37 0.17 0.05 0.02
0.00 0.00 0.00 0.00 0.00 0.00 0.00 0.00 0.00 0.00 0.00 0.00 0.00 0.00 0.00 0.00 0.00 0.00 0.00 0.00 0.00 0.00 0.03 0.13 0.14 0.08 0.05 0.11 0.31 0.52 0.74 0.81 0.91 1.03 1.12 1.09 0.94 0.73 0.59 0.44 0.23 0.10 0.04
0.00 0.00 0.00 0.00 0.00 0.00 0.00 0.00 0.00 0.00 0.00 0.00 0.00 0.00 0.00 0.00 0.01 0.01 0.00 0.00 0.00 0.00 0.04 0.07 0.07 0.10 0.10 0.22 0.39 0.47 0.67 0.67 0.75 0.78 1.07 1.39 1.44 1.26 0.94 0.60 0.30 0.13 0.05
0.00 0.00 0.00 0.00 0.00 0.00 0.00 0.00 0.00 0.00 0.00 0.00 0.00 0.00 0.00 0.01 0.00 0.00 0.01 0.01 0.00 0.01 0.02 0.10 0.17 0.25 0.26 0.28 0.31 0.35 0.46 0.69 1.00 1.00 0.98 1.28 1.29 1.39 1.22 0.88 0.59 0.28 0.09
0.00 0.00 0.00 0.00 0.00 0.00 0.00 0.00 0.00 0.00 0.00 0.00 0.00 0.00 0.00 0.00 0.00 0.00 0.00 0.00 0.00 0.01 0.03 0.10 0.15 0.17 0.19 0.21 0.30 0.34 0.40 0.47 0.50 0.53 0.86 1.24 1.23 1.24 0.97 0.81 0.60 0.38 0.18
0.00 0.00 0.00 0.00 0.00 0.00 0.00 0.00 0.00 0.00 0.00 0.00 0.00 0.00 0.00 0.00 0.00 0.00 0.00 0.00 0.00 0.00 0.00 0.03 0.07 0.15 0.22 0.27 0.29 0.34 0.39 0.51 0.40 0.41 0.64 1.25 1.30 1.29 1.02 0.80 0.60 0.45 0.30
0.02 0.01 0.00 0.00 0.00 0.00 0.00 0.00 0.00 0.00 0.00 0.00 0.00 0.00 0.00 0.00 0.00 0.01 0.00 0.00 0.00 0.00 0.00 0.00 0.01 0.04 0.12 0.13 0.20 0.23 0.33 0.49 0.56 0.69 1.00 1.04 1.36 1.36 1.22 1.05 0.77 0.61 0.56
0.00 0.00 0.00 0.00 0.00 0.00 0.00 0.00 0.00 0.00 0.00 0.00 0.00 0.00 0.00 0.00 0.00 0.01 0.00 0.00 0.00 0.00 0.00 0.00 0.00 0.01 0.02 0.04 0.09 0.15 0.22 0.34 0.46 0.68 0.78 0.65 0.83 0.94 1.16 1.22 1.01 0.94 0.87